This is the latest recevied weather packets stored in our database for station/object VE2JJ-13. If no packets are shown the sender has not sent any weather packets the latest 10 day(s).
| Time | Temp. | Humidity | Pressure | Rain* | Wind** | Luminosity | Snow |
|---|---|---|---|---|---|---|---|
| 1777324922 | 24.44° C | 30% | 1014.6 hPa | 0 mm | - | - | - |
| 1777324623 | 23.33° C | 32% | 1014.8 hPa | 0 mm | - | - | - |
| 1777324329 | 23.33° C | 32% | 1014.8 hPa | 0 mm | - | - | - |
| 1777324023 | 23.89° C | 32% | 1014.8 hPa | 0 mm | - | - | - |
| 1777323726 | 23.89° C | 31% | 1014.8 hPa | 0 mm | - | - | - |
| 1777323421 | 23.89° C | 32% | 1014.8 hPa | 0 mm | - | - | - |
| 1777323093 | 23.89° C | 31% | 1015 hPa | 0 mm | - | - | - |
| 1777322762 | 24.44° C | 31% | 1015 hPa | 0 mm | - | - | - |
| 1777322463 | 23.89° C | 31% | 1015 hPa | 0 mm | - | - | - |
| 1777322164 | 23.89° C | 33% | 1015 hPa | 0 mm | - | - | - |
| 1777321863 | 23.33° C | 33% | 1015 hPa | 0 mm | - | - | - |
| 1777321531 | 24.44° C | 32% | 1015.2 hPa | 0 mm | - | - | - |
| 1777321232 | 24.44° C | 32% | 1015.2 hPa | 0 mm | - | - | - |
| 1777320902 | 23.89° C | 32% | 1015.4 hPa | 0 mm | - | - | - |
| 1777320603 | 23.89° C | 32% | 1015.4 hPa | 0 mm | - | - | - |
| 1777320271 | 23.89° C | 32% | 1015.3 hPa | 0 mm | - | - | - |
| 1777319613 | 23.89° C | 32% | 1015.4 hPa | 0 mm | - | - | - |
| 1777319283 | 23.89° C | 33% | 1015.7 hPa | 0 mm | - | - | - |
| 1777318985 | 23.89° C | 34% | 1015.7 hPa | 0 mm | - | - | - |
| 1777318680 | 23.89° C | 33% | 1015.8 hPa | 0 mm | - | - | - |
| 1777318387 | 23.89° C | 33% | 1015.8 hPa | 0 mm | - | - | - |
| 1777318052 | 24.44° C | 33% | 1016 hPa | 0 mm | - | - | - |
| 1777317754 | 24.44° C | 33% | 1016 hPa | 0 mm | - | - | - |
| 1777317422 | 25° C | 32% | 1016.1 hPa | 0 mm | - | - | - |
| 1777317121 | 23.89° C | 33% | 1016.1 hPa | 0 mm | - | - | - |
* Rain latest hour (hover to see other rain measurements)
** Current wind speed in m/s (hover to see current wind gust speed)